KOREASAT 5 (MUGUNGWHA 5)

Last updated on Tue Sep 15 2026 00:03:08 GMT+0000 (Coordinated Universal Time)

1 29349U 06034A 26257.59754778 -.00000365 00000+0 00000+0 0 9997 2 29349 2.0091 81.7372 0001765 140.2002 99.8223 1.00272562 42214
UTC large
Height (km)
Speed (km/s)
/
Latitude / Longitude
Inclination (degrees)
Orbital Period (minutes)
Azimuth
Elevation
Range (km)
Doppler Factor

Next 0 passes for location: London (51.5072 / 0.1276)

No passes found over London.
KOREASAT 5 (MUGUNGWHA 5)